Regional Weather Roundup
Issued by NWS

Home | Current Version | Previous Version | Text Only | Print | Product List | Glossary Off
Versions: 1 2 3 4 5 6 7 8 9 10 11 12 13 14 15 16 17 18 19 20 21 22 23 24 25 26 27 28 29 30 31 32 33 34 35 36 37 38 39 40 41 42 43 44 45 46 47 48 49 50

000
ASUS43 KLSX 281307
RWRMO

WEATHER SUMMARY FOR MISSOURI
NATIONAL WEATHER SERVICE SPRINGFIELD MO
800 AM CDT SAT MAR 28 2015

NOTE: "FAIR" INDICATES FEW OR NO CLOUDS BELOW 12,000 FEET WITH NO
       SIGNIFICANT WEATHER AND/OR OBSTRUCTIONS TO VISIBILITY.
       CURRENT SKY AND/OR WEATHER CONDITIONS ARE NOT AVAILABLE FOR
       CHILLICOTHE AND FARMINGTON.

MOZ001>031-035>038-043-044-053-054-281400-
...NORTHERN AND WESTERN MISSOURI...

CITY           SKY/WX    TMP DP  RH WIND       PRES   REMARKS
KANSAS CTY INT CLOUDY    36  29  75 E13       30.16R WCI  27
KANSAS C DTWN  CLOUDY    38  28  67 E9        30.16R
LEE`S SUMMIT   CLOUDY    36  29  75 E10       30.16R WCI  28
ST JOSEPH      PTCLDY    35  29  78 E12       30.17R WCI  27
CHILLICOTHE      N/A     33  28  81 E8        30.23R WCI  26
KIRKSVILLE     CLOUDY    31  20  63 SE8       30.23R WCI  23

$$
MOZ066>068-077>081-088>096-101>105-281400-
...SOUTHWEST MISSOURI...

CITY           SKY/WX    TMP DP  RH WIND       PRES   REMARKS
SPRINGFIELD    CLOUDY    39  23  52 SE12      30.13S
JOPLIN         CLOUDY    41  28  60 SE6       30.12R

$$
MOZ032>034-039>042-045>050-055>058-069>072-281400-
...CENTRAL MISSOURI...

CITY           SKY/WX    TMP DP  RH WIND       PRES   REMARKS
COLUMBIA       CLOUDY    32  22  66 SE7       30.23R WCI  26
JEFFERSON CITY LGT SNOW  32  26  78 E7        30.25R WCI  26
ROLLA          FLURRIES  31  23  72 E6        30.21R WCI  25
SEDALIA        CLOUDY    36  30  79 E7        30.21R
WHITEMAN AFB   CLOUDY    36  32  87 E8        30.19R WCI  29
WARRENSBURG    CLOUDY    34  30  86 E8        30.19R WCI  27
OSAGE BEACH    CLOUDY    34  28  80 SE6       30.22R WCI  29

$$
MOZ051-052-059>065-281400-
...EAST CENTRAL MISSOURI...

CITY           SKY/WX    TMP DP  RH WIND       PRES   REMARKS
ST LOUIS INTL  PTSUNNY   31  18  58 E6        30.29R WCI  25
SPIRIT OF STL  PTSUNNY   29  21  72 CALM      30.28R
ST CHARLES     MOSUNNY   29  22  75 E7        30.29R WCI  22

$$
MOZ072>076-082>087-097>100-106>115-281400-
...SOUTH CENTRAL AND SOUTHEAST MISSOURI...

CITY           SKY/WX    TMP DP  RH WIND       PRES   REMARKS
CAPE GIRARDEAU SUNNY     31  26  82 CALM      30.29
FARMINGTON     MOSUNNY   28  21  74 CALM      30.29R
POPLAR BLUFF   CLOUDY    34  26  72 NE7       30.27R WCI  28
WEST PLAINS    LGT SNOW  31  27  85 SE7       30.23R VSB 1   WCI  24

$$


USA.gov is the U.S. government's official web portal to all federal, state and local government web resources and services.